This is the latest recevied weather packets stored in our database for station/object SQ8AQL-16. If no packets are shown the sender has not sent any weather packets the latest 10 day(s).
| Time | Temp. | Humidity | Pressure | Rain* | Wind** | Luminosity | Snow |
|---|---|---|---|---|---|---|---|
| 1777649306 | 21.11° C | 30% | 1025.7 hPa | - | - | 119 W/m² | - |
| 1777648405 | 20.56° C | 30% | 1025.7 hPa | - | - | 106 W/m² | - |
| 1777647504 | 20.56° C | 31% | 1025.7 hPa | - | - | 68 W/m² | - |
| 1777645703 | 21.11° C | 29% | 1025.9 hPa | - | - | 73 W/m² | - |
| 1777644801 | 22.78° C | 27% | 1026 hPa | - | - | 101 W/m² | - |
| 1777643900 | 24.44° C | 24% | 1026 hPa | - | - | 181 W/m² | - |
| 1777642098 | 24.44° C | 25% | 1026.2 hPa | - | - | 148 W/m² | - |
| 1777641197 | 28.33° C | 20% | 1026.3 hPa | - | - | 218 W/m² | - |
| 1777640296 | 28.33° C | 20% | 1026.5 hPa | - | - | 218 W/m² | - |
| 1777638494 | 23.89° C | 25% | 1026.8 hPa | - | - | 761 W/m² | - |
| 1777637593 | 26.67° C | 21% | 1027 hPa | - | - | 223 W/m² | - |
| 1777636692 | 28.33° C | 20% | 1027.1 hPa | - | - | 899 W/m² | - |
| 1777635791 | 25.56° C | 21% | 1027.2 hPa | - | - | 888 W/m² | - |
| 1777634890 | 23.33° C | 25% | 1027.2 hPa | - | - | 867 W/m² | - |
| 1777633989 | 21.11° C | 28% | 1027.5 hPa | - | - | 444 W/m² | - |
| 1777633091 | 21.11° C | 28% | 1027.5 hPa | - | - | 444 W/m² | - |
| 1777632187 | 21.11° C | 28% | 1027.6 hPa | - | - | 276 W/m² | - |
| 1777631285 | 18.33° C | 30% | 1027.8 hPa | - | - | 347 W/m² | - |
| 1777630385 | 18.33° C | 30% | 1027.8 hPa | - | - | 347 W/m² | - |
| 1777629484 | 18.33° C | 30% | 1027.9 hPa | - | - | 347 W/m² | - |
| 1777628583 | 18.33° C | 30% | 1028 hPa | - | - | 194 W/m² | - |
| 1777627682 | 17.78° C | 30% | 1028 hPa | - | - | 165 W/m² | - |
| 1777626780 | 17.78° C | 30% | 1028.2 hPa | - | - | 167 W/m² | - |
| 1777625879 | 16.67° C | 31% | 1028.4 hPa | - | - | 195 W/m² | - |
| 1777624979 | 15.56° C | 31% | 1028.6 hPa | - | - | 165 W/m² | - |
* Rain since midnight (hover to see other rain measurements)
** Current wind speed in m/s (hover to see current wind gust speed)